Other Surface Observations
Issued by NWS Charleston, SC

Home | Current Version | Previous Version | Text Only | Print | Product List | Glossary On
Versions: 1 2 3 4 5 6 7 8 9 10 11 12 13 14 15 16 17 18 19 20 21 22 23 24 25 26 27 28 29 30 31 32 33 34 35 36 37 38 39 40 41 42 43 44 45 46 47 48 49 50
000
SXUS52 KCHS 281213
OSOCHS

MARINE OBSERVATIONS
NATIONAL WEATHER SERVICE CHARLESTON SC
800 AM EDT THU JUL 28 2016

...DOWNTOWN CHARLESTON AND HARBOR...

CITY           SKY/WX    TMP DP  RH WIND       PRES   REMARKS
WATERFRONT PRK   N/A     83  74  74 W5        29.98R HX  90

...LAKE MOULTRIE...

CITY           SKY/WX    TMP DP  RH WIND       PRES   REMARKS
PINOPOLIS        N/A     81  75  83 SW9       29.92S

...LAKE AND SUPPLEMENTAL COASTAL OBSERVATIONS...

STATION/POSITION TIME  TEMP    WIND        PRES    WAVE   SWELL
                       AIR SEA DIR/SP/G            HT/PER HT/PER/DIR
                 (UTC) (F)     (DEG/KT/KT) (MB)    (FT/S) (FT/S/D)
FORT PULASKI     1100   81 87  260/  7/  9 1017.1R
SAPELO ISLAND    1100   81     250/  4     1017.0S
WINYAH BAY       1045   81     270/  5     1014.0
LAKE MURRAY      1100   82     270/  9/ 11 1014.9R
ACE BASIN NERRS  NOT AVBL


...C-MAN AND BUOY OBSERVATIONS...

STATION/POSITION TIME  TEMP    WIND        PRES    WAVE   SWELL
                       AIR SEA DIR/SP/G            HT/PER HT/PER/DIR
                 (UTC) (F)     (DEG/KT/KT) (MB)    (FT/S) (FT/S/D)
BUOY 41004       1150   86 86  260/ 16/ 19 1015.5R   4/ 6   2/150/ 8
BUOY 41008       1150   84 86  270/ 12/ 14 1016.9R   2/ 5   2/ 90/ 8
FOLLY BEACH CMAN 1200   83     280/  4/  7 1016.2R
CAPERS NS BUOY   1108   84 83  280/ 12/ 14 1015.5R
FRIPP NS BUOY    1108   84 87  270/ 12/ 16 1015.9R
5E ST. MARYS GA  1201      85                N/A     2/ 4


STATION/POSITION TIME  TEMP    WIND        PRES    WAVE   SWELL
                       AIR SEA DIR/SP/G            HT/PER HT/PER/DIR
                 (UTC) (F)     (DEG/KT/KT) (MB)    (FT/S) (FT/S/D)
FRYING PAN BUOY  1200   85 85  260/ 14/ 16 1015.0R
BUOY 41025       1150   84 84  210/  8/ 10 1014.4R   2/ 6   2/210/ 6
CAPE LOOKOUT NC  1200   84     220/  7/ 10 1013.9R
BUOY 41002       1150   84 84  280/ 12/ 14 1017.1R   3/ 6   2/270/ 6
BUOY 41010       1120   85 87  230/  6/  8 1018.1R
ST AUGUSTINE FL  1200   82 84  250/  5/  6 1018.7R

$$




USA.gov is the U.S. government's official web portal to all federal, state and local government web resources and services.